Content
SEND FEEDBACK

Daily
Averages
Monthly
Summary
Canada

MONTREAL, QUEBEC


Home > North America > Canada > Quebec
Elevation: 118 feet     Latitude: 45 28N     Longitude: 073 45W

WEATHER
 
SELECT A DAY
Number of Records: 198,461;   Date Range: 1/1/95 - 8/20/14
 
SHARE

PRINT THIS DATA

[ ← Previous Day ]
WEATHER ALMANAC - MAY 10, 2013
[ Next Day → ]
[ °C ]   °F
Weather ElementAverageHighLow
Temperature61.5 °F68 °F (3:00 pm)51.8 °F (11:43 pm)
Dewpoint44.8 °F55.4 °F (1:00 am)37.4 °F (8:00 am)
Humidity54.1 %77 % (5:00 am)33 % (2:00 pm)
Barometer29.92 in30.02 in (9:00 am)29.78 in (11:43 pm)
Wind Speed12.2 mph23 mph (11:00 pm)
Wind Gust24.2 mph (10:00 pm)
Weather ElementAverage
Visibility16.7 mi
Wind DirectionESE (105.9 °)

Weather ElementTotal
Precipitation---
Heating Degree Days5.1 (Base 65)
Growing Degree Days9.9 (Base 50)
Averaged from 34 records on May 10, 2013
WEATHER CONDITIONS BREAKOUT
WIND DIRECTION BREAKOUT
WEATHER BY HOUR - MAY 10, 2013
[ °C ]   °F
Local TimeTemperatureDewpointHumidityBarometerVisibilityWind DirectionWind SpeedGust SpeedPrecipitationEventsConditions
1:00 AM66.2 °F55.4 °F68 %29.89 in15.0 miNNW (340°)10.4 mphOvercast
2:00 AM64.0 °F51.0 °F54 %29.90 in15.0 miNNW (340°)9.2 mphOvercast
2:00 AM64.4 °F51.8 °F64 %29.90 in15.0 miNorth (350°)8.1 mphOvercast
2:30 AM62.6 °F53.6 °F72 %29.90 in15.0 miNorth (350°)5.8 mphRainLight Rain Showers
2:51 AM62.6 °F51.8 °F68 %29.90 in15.0 miNorth (10°)6.9 mphMostly Cloudy
3:00 AM62.6 °F51.8 °F68 %29.90 in15.0 miNorth (360°)5.8 mphMostly Cloudy
4:00 AM60.8 °F51.8 °F72 %29.93 in15.0 miNNW (340°)6.9 mphScattered Clouds
5:00 AM59.0 °F51.8 °F77 %29.94 in15.0 miNorth (360°)15.0 mphScattered Clouds
6:00 AM55.4 °F44.6 °F67 %29.96 in30.0 miNNE (30°)11.5 mph18.4 mphMostly Cloudy
7:00 AM53.6 °F41.0 °F62 %29.99 in30.0 miNNE (20°)13.8 mph20.7 mphScattered Clouds
8:00 AM55.0 °F38.0 °F41 %30.01 in28.0 miNNE (30°)15.0 mphScattered Clouds
8:00 AM55.4 °F37.4 °F51 %30.00 in30.0 miNNE (20°)18.4 mphScattered Clouds
9:00 AM55.4 °F37.4 °F51 %30.02 in15.0 miNNE (30°)11.5 mphMostly Cloudy
10:00 AM57.2 °F41.0 °F55 %30.01 in15.0 miNE (40°)9.2 mphMostly Cloudy
11:00 AM59.0 °F39.2 °F48 %30.02 in15.0 miNE (40°)9.2 mphOvercast
12:00 PM62.6 °F41.0 °F45 %30.00 in15.0 miNE (50°)11.5 mphMostly Cloudy
1:00 PM64.4 °F41.0 °F42 %29.98 in15.0 miNNE (30°)5.8 mphScattered Clouds
2:00 PM66.2 °F44.6 °F46 %29.97 in15.0 miNE (50°)6.9 mphMostly Cloudy
2:00 PM67.0 °F45.0 °F33 %29.97 in15.0 miEast (80°)5.8 mphPartly Cloudy
3:00 PM68.0 °F44.6 °F43 %29.95 in15.0 miNE (50°)8.1 mphOvercast
4:00 PM68.0 °F44.6 °F43 %29.92 in15.0 miNE (40°)8.1 mphOvercast
5:00 PM68.0 °F42.8 °F40 %29.91 in15.0 miNE (50°)10.4 mphOvercast
5:46 PM66.2 °F42.8 °F43 %29.88 in15.0 miENE (60°)15.0 mphRainLight Rain Showers
6:00 PM66.2 °F42.8 °F43 %29.87 in15.0 miENE (60°)16.1 mph23.0 mphRainLight Rain Showers
6:25 PM66.2 °F42.8 °F43 %29.87 in15.0 miNE (50°)13.8 mph20.7 mphOvercast
7:00 PM64.4 °F42.8 °F45 %29.87 in15.0 miENE (60°)16.1 mphOvercast
7:10 PM64.4 °F42.8 °F45 %29.87 in15.0 miENE (60°)16.1 mph21.9 mphRainLight Rain
8:00 PM61.0 °F45.0 °F45 %29.86 in15.0 miNE (50°)15.0 mphRainLight Rain
8:00 PM60.8 °F44.6 °F55 %29.86 in15.0 miNE (50°)16.1 mph21.9 mphRainLight Rain
8:40 PM60.8 °F44.6 °F55 %29.84 in15.0 miNE (50°)17.3 mphOvercast
9:00 PM60.8 °F42.8 °F52 %29.84 in15.0 miNE (50°)16.1 mph23.0 mphOvercast
10:00 PM59.0 °F42.8 °F55 %29.84 in15.0 miNNE (30°)17.3 mph24.2 mphRainLight Rain Showers
11:00 PM53.6 °F44.6 °F72 %29.80 in15.0 miNE (40°)23.0 mphRainLight Rain
11:43 PM51.8 °F44.6 °F76 %29.78 in15.0 miNNE (30°)18.4 mphRainLight Rain
Hourly data recorded from CYUL, located miles away from Montreal, Quebec







STORIES FROM OUR PARTNERS